Weather History for Wolf Point, MT

Change the Weather History Date:

Friday, March 9, 2012

  Actual Average Record
Temperature  
Mean Temperature 46 °F -  
Max Temperature 68 °F 40 °F 68 °F (2012)
Min Temperature 23 °F 15 °F -31 °F (2002)
Degree Days  
Heating Degree Days 19    
Cooling Degree Days 0    
Moisture  
Dew Point 24 °F    
Average Humidity 57    
Maximum Humidity 92    
Minimum Humidity 20    
Precipitation  
Precipitation 0.00 in 0.02 in 0.03 in (2006)
Month to date precipitation 0.04 0.10  
Year to date precipitation 0.24 0.62  
Sea Level Pressure  
Sea Level Pressure 29.99 in    
Wind  
Wind Speed 4 mph (WSW)    
Max Wind Speed 15 mph    
Max Gust Speed 24 mph    
Visibility 10 miles    
Events      
T = Trace of Precipitation, MM = Missing Value Source: NWS Daily Summary

Daily Weather History Graph

Daily Weather History Graph

Search for Another Location

Airport:

Trip Planner

Search our weather history database for the weather conditions in past years. The results will help you decide how hot, cold, wet, or windy it might be!

Date:

Astronomy

Mar. 09, 2012 Rise Set
Actual Time 6:26 AM MST 5:59 PM MST
Civil Twilight 5:55 AM MST 6:30 PM MST
Nautical Twilight 5:19 AM MST 7:06 PM MST
Astronomical Twilight 4:43 AM MST 7:43 PM MST
Moon 8:17 PM MST (3/9) 6:35 AM MST (3/9)
Length of Visible Light 12h 35m
Length of Day
11h 33m
Full, 97% of the Moon is Illuminated
Mar 9
Full
Mar 14
Last Quarter
Mar 22
New
Mar 30
First Quarter
Apr 6
Full

Hourly Weather History & Observations

Time (MST) Temp. Windchill Dew Point Humidity Pressure Visibility Wind Dir Wind Speed Gust Speed Precip Events Conditions
12:53 AM 24.1 °F 17.0 °F 21.0 °F 88% 30.25 in 10.0 mi NE 5.8 mph - N/A   Clear
1:53 AM 24.1 °F 18.2 °F 21.0 °F 88% 30.24 in 10.0 mi ENE 4.6 mph - N/A   Clear
2:53 AM 24.1 °F - 21.0 °F 88% 30.20 in 10.0 mi Calm Calm - N/A   Clear
3:53 AM 24.1 °F - 21.0 °F 88% 30.18 in 10.0 mi Calm Calm - N/A   Clear
4:53 AM 23.0 °F - 21.0 °F 92% 30.16 in 10.0 mi Calm Calm - N/A   Clear
5:53 AM 24.1 °F - 21.0 °F 88% 30.15 in 10.0 mi Calm Calm - N/A   Partly Cloudy
6:53 AM 24.1 °F - 21.9 °F 91% 30.14 in 10.0 mi Calm Calm - N/A   Clear
7:53 AM 27.0 °F - 24.1 °F 89% 30.12 in 10.0 mi Calm Calm - N/A   Clear
8:53 AM 33.1 °F - 27.0 °F 78% 30.09 in 10.0 mi Calm Calm - N/A   Clear
9:53 AM 39.0 °F - 28.0 °F 65% 30.06 in 10.0 mi Calm Calm - N/A   Clear
10:53 AM 48.9 °F - 28.9 °F 46% 30.03 in 10.0 mi West 5.8 mph - N/A   Clear
11:53 AM 59.0 °F - 28.0 °F 31% 29.98 in 10.0 mi SW 8.1 mph - N/A   Clear
12:53 PM 64.9 °F - 23.0 °F 20% 29.94 in 10.0 mi WSW 15.0 mph - N/A   Clear
1:53 PM 66.0 °F - 23.0 °F 20% 29.90 in 10.0 mi WSW 15.0 mph 24.2 mph N/A   Clear
2:53 PM 66.0 °F - 25.0 °F 21% 29.87 in 10.0 mi SW 13.8 mph - N/A   Clear
3:53 PM 66.0 °F - 26.1 °F 22% 29.85 in 10.0 mi West 11.5 mph 21.9 mph N/A   Clear
4:53 PM 62.1 °F - 26.1 °F 25% 29.84 in 10.0 mi WSW 10.4 mph - N/A   Clear
5:53 PM 55.9 °F - 26.1 °F 32% 29.84 in 10.0 mi Calm Calm - N/A   Clear
6:53 PM 48.0 °F - 25.0 °F 41% 29.85 in 10.0 mi Calm Calm - N/A   Clear
7:53 PM 44.1 °F - 25.0 °F 47% 29.84 in 10.0 mi Calm Calm - N/A   Clear
8:53 PM 46.0 °F 41.4 °F 23.0 °F 40% 29.82 in 10.0 mi West 9.2 mph - N/A   Clear
9:53 PM 39.9 °F 35.8 °F 23.0 °F 51% 29.83 in 10.0 mi WSW 5.8 mph - N/A   Clear
10:53 PM 36.0 °F 31.1 °F 24.1 °F 62% 29.82 in 10.0 mi West 5.8 mph - N/A   Clear
11:53 PM 33.1 °F - 23.0 °F 66% 29.81 in 10.0 mi Calm Calm - N/A   Clear